This is the latest recevied weather packets stored in our database for station/object N2MLB-WX. If no packets are shown the sender has not sent any weather packets the latest 1 day(s).
| Time | Temp. | Humidity | Pressure | Rain* | Wind** | Luminosity | Snow |
|---|---|---|---|---|---|---|---|
| 1778006239 | 17.78° C | 70% | 1002 hPa | 0 mm | 1.34 m/s, 250° | 85 W/m² | - |
| 1778005950 | 17.22° C | 72% | 1002 hPa | 0 mm | 0.45 m/s, 255° | 116 W/m² | - |
| 1778005639 | 17.78° C | 70% | 1002 hPa | 0 mm | 0.89 m/s, 359° | 111 W/m² | - |
| 1778005339 | 16.67° C | 69% | 1002 hPa | 0 mm | 0.89 m/s, 280° | 90 W/m² | - |
| 1778005040 | 16.67° C | 71% | 1002 hPa | 0 mm | 0.89 m/s, 9° | 105 W/m² | - |
| 1778004739 | 17.22° C | 71% | 1002 hPa | 0 mm | 0.45 m/s, 90° | 122 W/m² | - |
| 1778004440 | 17.22° C | 69% | 1002 hPa | 0 mm | 1.79 m/s, 256° | 105 W/m² | - |
| 1778004139 | 16.67° C | 69% | 1002 hPa | 0 mm | 1.34 m/s, 259° | 121 W/m² | - |
| 1778003840 | 17.22° C | 71% | 1002 hPa | 0 mm | 0.89 m/s, 183° | 116 W/m² | - |
| 1778003540 | 17.22° C | 69% | 1002 hPa | 0 mm | 0.89 m/s, 320° | 120 W/m² | - |
| 1778003240 | 17.22° C | 70% | 1002 hPa | 0 mm | 0.89 m/s, 128° | 145 W/m² | - |
| 1778002939 | 17.22° C | 67% | 1002 hPa | 0 mm | 0.89 m/s, 289° | 157 W/m² | - |
| 1778002640 | 16.67° C | 69% | 1002 hPa | 0 mm | 2.68 m/s, 257° | 160 W/m² | - |
| 1778002340 | 17.22° C | 69% | 1002 hPa | 0 mm | 0.89 m/s, 53° | 174 W/m² | - |
| 1778002046 | 16.67° C | 70% | 1002 hPa | 0 mm | 1.79 m/s, 60° | 118 W/m² | - |
| 1778001739 | 16.11° C | 68% | 1002 hPa | 0 mm | 1.34 m/s, 90° | 128 W/m² | - |
| 1778001440 | 15.56° C | 72% | 1002 hPa | 0 mm | 2.24 m/s, 73° | 171 W/m² | - |
| 1778001140 | 15° C | 74% | 1002 hPa | 0 mm | 1.34 m/s, 314° | 90 W/m² | - |
| 1778000839 | 14.44° C | 74% | 1002 hPa | 0 mm | 1.34 m/s, 288° | 51 W/m² | - |
| 1778000541 | 15.56° C | 71% | 1002 hPa | 0 mm | 0.45 m/s, 48° | 43 W/m² | - |
| 1778000240 | 15.56° C | 68% | 1002 hPa | 0 mm | 2.68 m/s, 214° | 65 W/m² | - |
| 1777999940 | 16.11° C | 67% | 1002 hPa | 0 mm | 1.34 m/s, 214° | 38 W/m² | - |
| 1777999639 | 17.22° C | 65% | 1002 hPa | 0 mm | 2.24 m/s, 250° | 47 W/m² | - |
| 1777999339 | 18.89° C | 62% | 1002 hPa | 0 mm | 1.79 m/s, 297° | 82 W/m² | - |
| 1777999039 | 18.33° C | 65% | 1002 hPa | 0 mm | 0 m/s | 46 W/m² | - |
* Rain latest hour (hover to see other rain measurements)
** Current wind speed in m/s (hover to see current wind gust speed)